User: anonymous   Login
Location: Unspecified
(0.0000°N, 0.0000°E)
Time: 03:55:42
(UTC+00:00)
Language:

ISS - Orbit

View from above orbital plane
View from above orbital plane
View from above satellite
View from above satellite

Ground track
Ground track

The orbit data is extracted from the following two-line orbital elements,

1 25544U 98067A   21165.85112459  .00000803  00000-0  22758-4 0  9999
2 25544  51.6442 354.2810 0003435  94.6338  37.3099 15.48985275288233
Epoch (UTC): 14 June 2021 20:25:37
Eccentricity: 0.0003435
inclination: 51.6442°
perigee height: 417 km
apogee height: 422 km
right ascension of ascending node: 354.2810°
argument of perigee: 94.6338°
revolutions per day: 15.48985275
mean anomaly at epoch: 37.3099°
orbit number at epoch: 28823

The dashed part of the orbit path shows where the satellite is in the earth's shadow,  

DLR